AMX750 MMMY-KCLE

Flight info

Callsign AMX750
Flight time 2h 51m
Altitude 35000
Route MTY1A MTY J29 DEVOE DCT NEHOW DCT BRKMN DCT BERKE/N0439F370 DCT CIVKI DCT HUMBO DCT EMBRR DCT VHP DCT TALKN ROKNN4
Aircraft B738/M-SDE2E3FGHIRWXY/LB1

Departure

Time 2026-05-08 21:23
Airport Monterrey International Airport (MMMY)

Arrival

Time 2026-05-09 00:14
Airport Cleveland Hopkins International Airport (KCLE)
Time Latitude Longitude Altitude Speed Heading
2026-05-08 21:12 25.77930 -100.11433 1314 ft 0 kts 211°
2026-05-08 21:14 25.77938 -100.11428 1278 ft 3 kts 211°
2026-05-08 21:15 25.77954 -100.11418 1278 ft 3 kts 211°
2026-05-08 21:15 25.77970 -100.11407 1277 ft 3 kts 204°
2026-05-08 21:15 25.77987 -100.11406 1277 ft 3 kts 139°
2026-05-08 21:15 25.77993 -100.11413 1277 ft 0 kts 119°
2026-05-08 21:17 25.77993 -100.11412 1277 ft 0 kts 119°
2026-05-08 21:17 25.77991 -100.11409 1277 ft 1 kts 119°
2026-05-08 21:18 25.77988 -100.11402 1279 ft 1 kts 120°
2026-05-08 21:18 25.77982 -100.11392 1278 ft 2 kts 120°
2026-05-08 21:18 25.77975 -100.11378 1277 ft 2 kts 120°
2026-05-08 21:18 25.77966 -100.11360 1276 ft 3 kts 120°
2026-05-08 21:19 25.77955 -100.11339 1276 ft 3 kts 120°
2026-05-08 21:19 25.77945 -100.11314 1276 ft 4 kts 89°
2026-05-08 21:19 25.77965 -100.11309 1276 ft 4 kts 320°
2026-05-08 21:19 25.77979 -100.11334 1276 ft 4 kts 301°
2026-05-08 21:20 25.77993 -100.11359 1278 ft 4 kts 302°
2026-05-08 21:20 25.78006 -100.11383 1277 ft 4 kts 303°
2026-05-08 21:20 25.78020 -100.11407 1278 ft 4 kts 303°
2026-05-08 21:20 25.78029 -100.11422 1278 ft 4 kts 303°
2026-05-08 21:21 25.78053 -100.11462 1279 ft 8 kts 303°
2026-05-08 21:21 25.78098 -100.11543 1280 ft 11 kts 301°
2026-05-08 21:21 25.78142 -100.11624 1282 ft 13 kts 302°
2026-05-08 21:21 25.78195 -100.11717 1286 ft 15 kts 302°
2026-05-08 21:22 25.78239 -100.11783 1287 ft 16 kts 324°
2026-05-08 21:22 25.78344 -100.11760 1287 ft 17 kts 33°
2026-05-08 21:22 25.78380 -100.11636 1287 ft 27 kts 118°
2026-05-08 21:22 25.78150 -100.11231 1276 ft 102 kts 121°
2026-05-08 21:23 25.77639 -100.10326 1293 ft 169 kts 123°
2026-05-08 21:23 25.76996 -100.09243 2367 ft 153 kts 126°
2026-05-08 21:23 25.76369 -100.08317 3460 ft 156 kts 130°
2026-05-08 21:23 25.75611 -100.07292 3702 ft 193 kts 117°
2026-05-08 21:24 25.75091 -100.05831 3975 ft 216 kts 114°
2026-05-08 21:24 25.74406 -100.04240 4217 ft 240 kts 117°
2026-05-08 21:24 25.73608 -100.02592 4871 ft 243 kts 119°
2026-05-08 21:24 25.72761 -100.00901 5198 ft 262 kts 120°
2026-05-08 21:25 25.71899 -99.99037 5519 ft 280 kts 107°
2026-05-08 21:25 25.71860 -99.96880 6130 ft 287 kts 72°
2026-05-08 21:25 25.72866 -99.95013 6755 ft 288 kts 41°
2026-05-08 21:25 25.74506 -99.93755 7478 ft 288 kts 23°
2026-05-08 21:26 25.76371 -99.92892 8159 ft 294 kts 18°
2026-05-08 21:26 25.78304 -99.92109 8992 ft 297 kts 18°
2026-05-08 21:26 25.80270 -99.91323 9771 ft 303 kts 18°
2026-05-08 21:26 25.82270 -99.90503 10338 ft 314 kts 18°
2026-05-08 21:27 25.84395 -99.89623 10497 ft 337 kts 19°
2026-05-08 21:27 25.86628 -99.88684 10941 ft 347 kts 19°
2026-05-08 21:27 25.88908 -99.87714 11547 ft 352 kts 19°
2026-05-08 21:27 25.91210 -99.86729 12201 ft 356 kts 19°
2026-05-08 21:28 25.93539 -99.85731 12797 ft 363 kts 18°
2026-05-08 21:28 25.95918 -99.84714 13383 ft 369 kts 18°
2026-05-08 21:28 25.98284 -99.83616 14059 ft 371 kts 24°
2026-05-08 21:28 26.00484 -99.82043 14603 ft 378 kts 36°
2026-05-08 21:29 26.02389 -99.80046 15147 ft 384 kts 46°
2026-05-08 21:29 26.04204 -99.77832 15673 ft 389 kts 46°
2026-05-08 21:29 26.06028 -99.75577 16228 ft 393 kts 47°
2026-05-08 21:29 26.07863 -99.73293 16777 ft 398 kts 47°
2026-05-08 21:30 26.09724 -99.70985 17294 ft 403 kts 47°
2026-05-08 21:30 26.11588 -99.68684 17813 ft 407 kts 47°
2026-05-08 21:30 26.13498 -99.66337 18309 ft 411 kts 47°
2026-05-08 21:30 26.15432 -99.63966 18782 ft 415 kts 46°
2026-05-08 21:31 26.17382 -99.61580 19259 ft 418 kts 46°
2026-05-08 21:31 26.19349 -99.59173 19723 ft 422 kts 46°
2026-05-08 21:31 26.21339 -99.56737 20176 ft 426 kts 46°
2026-05-08 21:31 26.23338 -99.54289 20616 ft 429 kts 46°
2026-05-08 21:32 26.25358 -99.51814 21054 ft 434 kts 46°
2026-05-08 21:32 26.27384 -99.49330 21339 ft 441 kts 46°
2026-05-08 21:32 26.29456 -99.46789 21772 ft 444 kts 46°
2026-05-08 21:32 26.31533 -99.44238 22263 ft 444 kts 46°
2026-05-08 21:33 26.33618 -99.41676 22713 ft 447 kts 46°
2026-05-08 21:33 26.35718 -99.39095 23066 ft 451 kts 46°
2026-05-08 21:33 26.37840 -99.36484 23409 ft 455 kts 46°
2026-05-08 21:33 26.39974 -99.33857 23744 ft 458 kts 46°
2026-05-08 21:34 26.42119 -99.31216 24079 ft 460 kts 46°
2026-05-08 21:34 26.44273 -99.28563 24385 ft 463 kts 46°
2026-05-08 21:34 26.46493 -99.25947 24679 ft 465 kts 44°
2026-05-08 21:34 26.48785 -99.23377 24998 ft 469 kts 43°
2026-05-08 21:35 26.51097 -99.20793 25351 ft 471 kts 43°
2026-05-08 21:35 26.53406 -99.18178 25716 ft 474 kts 44°
2026-05-08 21:35 26.55761 -99.15588 26058 ft 476 kts 40°
2026-05-08 21:35 26.58204 -99.13152 26411 ft 479 kts 38°
2026-05-08 21:36 26.60762 -99.10730 26668 ft 483 kts 37°
2026-05-08 21:36 26.63357 -99.08319 26975 ft 486 kts 37°
2026-05-08 21:36 26.65962 -99.05897 27361 ft 488 kts 37°
2026-05-08 21:36 26.68573 -99.03449 27703 ft 490 kts 37°
2026-05-08 21:37 26.71183 -99.00980 28009 ft 493 kts 37°
2026-05-08 21:37 26.73808 -98.98479 28318 ft 496 kts 38°
2026-05-08 21:37 26.76436 -98.95963 28617 ft 499 kts 38°
2026-05-08 21:37 26.79082 -98.93422 28920 ft 501 kts 38°
2026-05-08 21:38 26.81734 -98.90872 29222 ft 504 kts 38°
2026-05-08 21:38 26.84372 -98.88333 29520 ft 507 kts 38°
2026-05-08 21:38 26.87056 -98.85750 29807 ft 509 kts 38°
2026-05-08 21:38 26.89758 -98.83148 30076 ft 512 kts 37°
2026-05-08 21:39 26.92468 -98.80538 30260 ft 515 kts 37°
2026-05-08 21:39 26.95196 -98.77910 30467 ft 518 kts 37°
2026-05-08 21:39 26.97900 -98.75303 30720 ft 519 kts 37°
2026-05-08 21:39 27.00639 -98.72660 31028 ft 519 kts 37°
2026-05-08 21:40 27.03376 -98.70017 31358 ft 518 kts 37°
2026-05-08 21:40 27.06108 -98.67377 31668 ft 518 kts 37°
2026-05-08 21:40 27.08842 -98.64734 31943 ft 519 kts 37°
2026-05-08 21:41 27.14290 -98.59462 32539 ft 519 kts 37°
2026-05-08 21:41 27.17020 -98.56818 32851 ft 518 kts 37°
2026-05-08 21:41 27.19760 -98.54162 33168 ft 519 kts 37°
2026-05-08 21:41 27.22495 -98.51510 33510 ft 520 kts 36°
2026-05-08 21:42 27.25245 -98.48841 33753 ft 522 kts 36°
2026-05-08 21:42 27.28002 -98.46164 33988 ft 523 kts 36°
2026-05-08 21:42 27.30722 -98.43520 34236 ft 522 kts 36°
2026-05-08 21:42 27.33466 -98.40850 34515 ft 521 kts 36°
2026-05-08 21:43 27.36207 -98.38182 34787 ft 519 kts 36°
2026-05-08 21:43 27.38949 -98.35513 34820 ft 524 kts 36°
2026-05-08 21:43 27.44506 -98.30101 34839 ft 532 kts 36°
2026-05-08 21:44 27.50142 -98.24601 34841 ft 538 kts 36°
2026-05-08 21:44 27.55810 -98.19056 34834 ft 540 kts 36°
2026-05-08 21:45 27.61469 -98.13513 34841 ft 542 kts 36°
2026-05-08 21:45 27.67135 -98.07954 34829 ft 533 kts 36°
2026-05-08 21:46 27.72715 -98.02473 34837 ft 532 kts 36°
2026-05-08 21:46 27.78296 -97.96989 34847 ft 532 kts 36°
2026-05-08 21:47 27.83849 -97.91524 34867 ft 533 kts 36°
2026-05-08 21:47 27.89449 -97.86003 34859 ft 534 kts 36°
2026-05-08 21:48 27.95054 -97.80468 34843 ft 535 kts 36°
2026-05-08 21:48 28.00630 -97.74954 34838 ft 535 kts 36°
2026-05-08 21:49 28.06235 -97.69403 34833 ft 535 kts 36°
2026-05-08 21:49 28.11844 -97.63841 34840 ft 535 kts 36°
2026-05-08 21:50 28.17444 -97.58279 34866 ft 535 kts 36°
2026-05-08 21:50 28.23033 -97.52720 34843 ft 535 kts 36°
2026-05-08 21:51 28.28627 -97.47147 34838 ft 535 kts 36°
2026-05-08 21:51 28.34313 -97.41712 34836 ft 530 kts 30°
2026-05-08 21:52 28.40330 -97.37014 34839 ft 527 kts 26°
2026-05-08 21:52 28.46464 -97.32431 34850 ft 529 kts 27°
2026-05-08 21:53 28.52606 -97.27762 34834 ft 532 kts 27°
2026-05-08 21:53 28.58724 -97.23022 34833 ft 532 kts 27°
2026-05-08 21:54 28.64834 -97.18256 34831 ft 532 kts 27°
2026-05-08 21:54 28.70940 -97.13490 34837 ft 531 kts 27°
2026-05-08 21:55 28.77045 -97.08725 34842 ft 532 kts 27°
2026-05-08 21:56 28.86174 -97.01592 34879 ft 532 kts 27°
2026-05-08 21:56 28.92284 -96.96809 34869 ft 533 kts 27°
2026-05-08 21:57 28.98406 -96.92008 34870 ft 533 kts 27°
2026-05-08 21:57 29.04476 -96.87241 34866 ft 533 kts 27°
2026-05-08 21:58 29.10590 -96.82433 34869 ft 533 kts 27°
2026-05-08 21:58 29.16710 -96.77613 34862 ft 534 kts 27°
2026-05-08 21:59 29.22834 -96.72783 34841 ft 534 kts 27°
2026-05-08 21:59 29.28960 -96.67943 34833 ft 534 kts 27°
2026-05-08 22:00 29.35047 -96.63127 34816 ft 535 kts 27°
2026-05-08 22:00 29.41183 -96.58266 34825 ft 536 kts 27°
2026-05-08 22:01 29.47318 -96.53398 34801 ft 535 kts 27°
2026-05-08 22:01 29.53443 -96.48531 34870 ft 535 kts 27°
2026-05-08 22:02 29.59549 -96.43673 34897 ft 538 kts 27°
2026-05-08 22:02 29.65740 -96.38741 34875 ft 540 kts 27°
2026-05-08 22:03 29.71910 -96.33812 34876 ft 538 kts 27°
2026-05-08 22:03 29.78045 -96.28904 34840 ft 535 kts 27°
2026-05-08 22:04 29.84122 -96.24037 34798 ft 533 kts 27°
2026-05-08 22:04 29.90202 -96.19162 34790 ft 531 kts 27°
2026-05-08 22:05 29.96271 -96.14289 34787 ft 532 kts 27°
2026-05-08 22:05 30.02354 -96.09399 34778 ft 532 kts 27°
2026-05-08 22:06 30.08367 -96.04554 34753 ft 530 kts 27°
2026-05-08 22:06 30.14411 -95.99676 34724 ft 529 kts 27°
2026-05-08 22:07 30.20441 -95.94803 34710 ft 527 kts 27°
2026-05-08 22:07 30.26446 -95.89944 34763 ft 526 kts 27°
2026-05-08 22:08 30.32450 -95.85078 34756 ft 526 kts 27°
2026-05-08 22:08 30.38432 -95.80221 34765 ft 526 kts 27°
2026-05-08 22:09 30.44301 -95.75197 34824 ft 528 kts 31°
2026-05-08 22:09 30.50067 -95.69907 34811 ft 530 kts 32°
2026-05-08 22:10 30.54900 -95.65462 34848 ft 537 kts 32°
2026-05-08 22:10 30.60827 -95.60062 34913 ft 541 kts 31°
2026-05-08 22:11 30.66771 -95.54671 34904 ft 541 kts 31°
2026-05-08 22:11 30.72673 -95.49317 34905 ft 541 kts 31°
2026-05-08 22:12 30.78620 -95.43912 34907 ft 540 kts 31°
2026-05-08 22:12 30.84543 -95.38519 34926 ft 539 kts 31°
2026-05-08 22:13 30.90415 -95.33163 34915 ft 539 kts 31°
2026-05-08 22:13 30.96317 -95.27771 34920 ft 539 kts 32°
2026-05-08 22:14 31.02223 -95.22366 34915 ft 538 kts 32°
2026-05-08 22:14 31.08103 -95.16977 34920 ft 537 kts 32°
2026-05-08 22:15 31.13946 -95.11613 34921 ft 537 kts 32°
2026-05-08 22:15 31.19821 -95.06212 34927 ft 537 kts 32°
2026-05-08 22:16 31.25698 -95.00799 34925 ft 537 kts 32°
2026-05-08 22:16 31.31536 -94.95414 34921 ft 538 kts 32°
2026-05-08 22:17 31.37413 -94.89984 34921 ft 538 kts 32°
2026-05-08 22:17 31.43292 -94.84543 34967 ft 539 kts 32°
2026-05-08 22:18 31.49187 -94.79079 34929 ft 540 kts 32°
2026-05-08 22:18 31.55052 -94.73633 34931 ft 541 kts 32°
2026-05-08 22:19 31.60953 -94.68144 34932 ft 541 kts 32°
2026-05-08 22:19 31.66864 -94.62637 34926 ft 542 kts 32°
2026-05-08 22:20 31.72771 -94.57124 34955 ft 542 kts 32°
2026-05-08 22:20 31.78692 -94.51589 34934 ft 543 kts 32°
2026-05-08 22:21 31.84578 -94.46078 34922 ft 544 kts 32°
2026-05-08 22:21 31.90505 -94.40517 34925 ft 544 kts 32°
2026-05-08 22:22 31.96417 -94.34962 34921 ft 543 kts 32°
2026-05-08 22:22 32.02333 -94.29394 34953 ft 544 kts 33°
2026-05-08 22:23 32.08221 -94.23844 34930 ft 544 kts 33°
2026-05-08 22:23 32.14130 -94.18264 34912 ft 544 kts 33°
2026-05-08 22:24 32.20008 -94.12703 34916 ft 543 kts 33°
2026-05-08 22:24 32.25914 -94.07106 34922 ft 543 kts 33°
2026-05-08 22:25 32.31814 -94.01506 34927 ft 544 kts 33°
2026-05-08 22:25 32.37714 -93.95897 34909 ft 544 kts 33°
2026-05-08 22:26 32.43616 -93.90275 34904 ft 544 kts 33°
2026-05-08 22:26 32.49473 -93.84686 34908 ft 544 kts 33°
2026-05-08 22:27 32.55380 -93.79040 34892 ft 543 kts 33°
2026-05-08 22:27 32.61261 -93.73408 34921 ft 544 kts 33°
2026-05-08 22:28 32.67150 -93.67758 34923 ft 544 kts 33°
2026-05-08 22:28 32.72996 -93.62140 34912 ft 544 kts 33°
2026-05-08 22:29 32.78888 -93.56495 34918 ft 543 kts 32°
2026-05-08 22:29 32.84810 -93.50901 34966 ft 543 kts 32°
2026-05-08 22:30 32.90749 -93.45295 34923 ft 544 kts 32°
2026-05-08 22:30 32.96632 -93.39719 34912 ft 544 kts 32°
2026-05-08 22:31 33.02554 -93.34086 34920 ft 544 kts 32°
2026-05-08 22:31 33.08477 -93.28440 34906 ft 544 kts 32°
2026-05-08 22:32 33.14352 -93.22830 34919 ft 544 kts 32°
2026-05-08 22:32 33.20265 -93.17177 34904 ft 545 kts 32°
2026-05-08 22:33 33.26180 -93.11510 34897 ft 545 kts 33°
2026-05-08 22:33 33.32093 -93.05834 34905 ft 544 kts 33°
2026-05-08 22:34 33.37993 -93.00161 34904 ft 544 kts 33°
2026-05-08 22:34 33.43900 -92.94471 34917 ft 544 kts 33°
2026-05-08 22:35 33.49764 -92.88814 34927 ft 544 kts 33°
2026-05-08 22:35 33.55656 -92.83118 34923 ft 544 kts 33°
2026-05-08 22:36 33.61561 -92.77399 34915 ft 545 kts 33°
2026-05-08 22:36 33.67455 -92.71682 34945 ft 545 kts 32°
2026-05-08 22:37 33.73355 -92.65948 34926 ft 546 kts 32°
2026-05-08 22:37 33.79268 -92.60191 34923 ft 546 kts 32°
2026-05-08 22:38 33.85149 -92.54453 34929 ft 547 kts 32°
2026-05-08 22:38 33.91060 -92.48676 34925 ft 547 kts 33°
2026-05-08 22:39 33.96976 -92.42885 34936 ft 548 kts 33°
2026-05-08 22:39 34.02901 -92.37072 34927 ft 548 kts 33°
2026-05-08 22:40 34.08775 -92.31299 34927 ft 547 kts 33°
2026-05-08 22:40 34.14690 -92.25475 34915 ft 547 kts 33°
2026-05-08 22:41 34.20555 -92.19690 34960 ft 546 kts 33°
2026-05-08 22:41 34.26452 -92.13864 34922 ft 547 kts 33°
2026-05-08 22:42 34.32339 -92.08034 34918 ft 546 kts 33°
2026-05-08 22:42 34.38211 -92.02209 34919 ft 545 kts 33°
2026-05-08 22:43 34.44030 -91.96426 34924 ft 544 kts 33°
2026-05-08 22:43 34.49882 -91.90600 34938 ft 544 kts 33°
2026-05-08 22:44 34.55727 -91.84768 34928 ft 543 kts 33°
2026-05-08 22:44 34.61570 -91.78929 34927 ft 542 kts 33°
2026-05-08 22:45 34.67397 -91.73095 34929 ft 542 kts 33°
2026-05-08 22:45 34.73180 -91.67292 34978 ft 542 kts 33°
2026-05-08 22:46 34.79006 -91.61437 34935 ft 543 kts 33°
2026-05-08 22:46 34.84787 -91.55492 34936 ft 544 kts 34°
2026-05-08 22:47 34.90469 -91.49405 34928 ft 543 kts 35°
2026-05-08 22:47 34.96101 -91.43342 34940 ft 543 kts 34°
2026-05-08 22:48 35.01784 -91.37250 34971 ft 544 kts 34°
2026-05-08 22:48 35.07457 -91.31180 34956 ft 544 kts 34°
2026-05-08 22:49 35.13153 -91.25076 34942 ft 544 kts 34°
2026-05-08 22:49 35.21666 -91.15926 34947 ft 543 kts 34°
2026-05-08 22:50 35.27332 -91.09819 34968 ft 543 kts 34°
2026-05-08 22:50 35.33004 -91.03697 34953 ft 543 kts 34°
2026-05-08 22:51 35.38634 -90.97607 34950 ft 543 kts 34°
2026-05-08 22:51 35.44291 -90.91476 34949 ft 542 kts 34°
2026-05-08 22:52 35.49954 -90.85325 34983 ft 542 kts 34°
2026-05-08 22:52 35.55617 -90.79166 34945 ft 543 kts 34°
2026-05-08 22:53 35.61232 -90.73044 34938 ft 543 kts 34°
2026-05-08 22:53 35.66888 -90.66865 34927 ft 543 kts 34°
2026-05-08 22:54 35.72544 -90.60673 34921 ft 543 kts 34°
2026-05-08 22:54 35.78162 -90.54513 34941 ft 544 kts 34°
2026-05-08 22:55 35.83816 -90.48301 34934 ft 545 kts 34°
2026-05-08 22:55 35.89473 -90.42071 34928 ft 545 kts 34°
2026-05-08 22:56 35.95135 -90.35824 34929 ft 545 kts 35°
2026-05-08 22:56 36.00787 -90.29576 34925 ft 545 kts 35°
2026-05-08 22:57 36.05482 -90.24375 34915 ft 545 kts 35°
2026-05-08 22:57 36.12051 -90.17085 34905 ft 545 kts 35°
2026-05-08 22:58 36.17696 -90.10808 34900 ft 546 kts 35°
2026-05-08 22:58 36.22422 -90.05541 34897 ft 546 kts 35°
2026-05-08 22:59 36.28036 -89.99275 34938 ft 546 kts 35°
2026-05-08 22:59 36.33686 -89.92955 34931 ft 547 kts 35°
2026-05-08 23:00 36.39336 -89.86622 34927 ft 547 kts 35°
2026-05-08 23:00 36.44978 -89.80283 34927 ft 547 kts 35°
2026-05-08 23:01 36.50592 -89.73964 34974 ft 547 kts 35°
2026-05-08 23:01 36.56239 -89.67595 34926 ft 547 kts 35°
2026-05-08 23:02 36.61846 -89.61257 34914 ft 547 kts 35°
2026-05-08 23:02 36.67480 -89.54897 34898 ft 546 kts 35°
2026-05-08 23:03 36.73118 -89.48551 34896 ft 545 kts 35°
2026-05-08 23:03 36.78741 -89.42207 34897 ft 544 kts 35°
2026-05-08 23:04 36.84350 -89.35859 34896 ft 543 kts 35°
2026-05-08 23:04 36.89900 -89.29563 34912 ft 541 kts 35°
2026-05-08 23:05 36.95464 -89.23236 34907 ft 539 kts 35°
2026-05-08 23:05 37.01018 -89.16909 34948 ft 539 kts 35°
2026-05-08 23:06 37.06563 -89.10582 34920 ft 539 kts 35°
2026-05-08 23:06 37.12098 -89.04252 34906 ft 538 kts 35°
2026-05-08 23:07 37.17625 -88.97918 34905 ft 538 kts 35°
2026-05-08 23:07 37.23107 -88.91621 34954 ft 537 kts 36°
2026-05-08 23:08 37.28621 -88.85275 34890 ft 538 kts 36°
2026-05-08 23:08 37.34135 -88.78914 34899 ft 537 kts 36°
2026-05-08 23:09 37.39608 -88.72590 34906 ft 536 kts 36°
2026-05-08 23:09 37.45100 -88.66230 34906 ft 536 kts 36°
2026-05-08 23:10 37.50588 -88.59862 34924 ft 536 kts 36°
2026-05-08 23:10 37.56071 -88.53485 34907 ft 535 kts 36°
2026-05-08 23:11 37.61541 -88.47109 34905 ft 535 kts 36°
2026-05-08 23:11 37.66966 -88.40771 34905 ft 534 kts 36°
2026-05-08 23:12 37.72417 -88.34394 34943 ft 534 kts 36°
2026-05-08 23:12 37.77867 -88.28004 34917 ft 534 kts 36°
2026-05-08 23:13 37.83308 -88.21609 34910 ft 534 kts 36°
2026-05-08 23:13 37.88746 -88.15204 34906 ft 533 kts 36°
2026-05-08 23:14 37.94137 -88.08841 34933 ft 533 kts 36°
2026-05-08 23:14 37.99569 -88.02417 34911 ft 533 kts 36°
2026-05-08 23:15 38.04963 -87.96024 34903 ft 533 kts 36°
2026-05-08 23:15 38.10387 -87.89582 34902 ft 533 kts 36°
2026-05-08 23:16 38.15819 -87.83116 34904 ft 534 kts 36°
2026-05-08 23:16 38.21241 -87.76650 34902 ft 535 kts 36°
2026-05-08 23:17 38.26632 -87.70205 34897 ft 535 kts 36°
2026-05-08 23:17 38.32085 -87.63671 34892 ft 534 kts 36°
2026-05-08 23:18 38.37460 -87.57217 34888 ft 534 kts 36°
2026-05-08 23:18 38.42874 -87.50704 34886 ft 534 kts 36°
2026-05-08 23:19 38.48279 -87.44186 34885 ft 534 kts 36°
2026-05-08 23:19 38.53679 -87.37660 34882 ft 534 kts 36°
2026-05-08 23:20 38.59065 -87.31136 34889 ft 534 kts 36°
2026-05-08 23:20 38.64454 -87.24666 34900 ft 531 kts 32°
2026-05-08 23:21 38.67375 -87.21862 34878 ft 519 kts 22°
2026-05-08 23:21 38.70478 -87.19546 34894 ft 515 kts 19°
2026-05-08 23:21 38.76742 -87.15079 34883 ft 515 kts 19°
2026-05-08 23:22 38.82986 -87.10586 34885 ft 515 kts 20°
2026-05-08 23:22 38.89220 -87.06010 34899 ft 517 kts 20°
2026-05-08 23:23 38.95462 -87.01386 34889 ft 517 kts 20°
2026-05-08 23:23 39.01702 -86.96751 34882 ft 517 kts 20°
2026-05-08 23:24 39.07893 -86.92149 34891 ft 517 kts 20°
2026-05-08 23:24 39.14136 -86.87503 34895 ft 518 kts 20°
2026-05-08 23:25 39.20372 -86.82850 34893 ft 518 kts 20°
2026-05-08 23:25 39.26603 -86.78193 34892 ft 517 kts 20°
2026-05-08 23:26 39.32835 -86.73525 34928 ft 517 kts 20°
2026-05-08 23:26 39.39013 -86.68887 34910 ft 516 kts 20°
2026-05-08 23:27 39.45224 -86.64214 34905 ft 515 kts 20°
2026-05-08 23:27 39.51414 -86.59549 34908 ft 514 kts 20°
2026-05-08 23:28 39.57587 -86.54885 34915 ft 513 kts 20°
2026-05-08 23:28 39.63705 -86.50255 34909 ft 511 kts 20°
2026-05-08 23:29 39.69844 -86.45598 34910 ft 510 kts 20°
2026-05-08 23:29 39.75968 -86.40944 34948 ft 509 kts 20°
2026-05-08 23:30 39.78874 -86.38229 34875 ft 527 kts 37°
2026-05-08 23:30 39.81202 -86.34469 34923 ft 541 kts 55°
2026-05-08 23:30 39.82719 -86.29961 34897 ft 549 kts 75°
2026-05-08 23:30 39.83455 -86.25095 34940 ft 548 kts 80°
2026-05-08 23:31 39.84726 -86.15331 34908 ft 549 kts 80°
2026-05-08 23:31 39.86062 -86.05510 34906 ft 551 kts 79°
2026-05-08 23:32 39.87468 -85.95738 34918 ft 553 kts 79°
2026-05-08 23:32 39.88907 -85.85866 34916 ft 555 kts 79°
2026-05-08 23:33 39.90338 -85.75955 34914 ft 557 kts 79°
2026-05-08 23:33 39.91757 -85.66017 34904 ft 558 kts 79°
2026-05-08 23:34 39.93166 -85.56062 34905 ft 559 kts 79°
2026-05-08 23:34 39.94569 -85.46092 34959 ft 557 kts 79°
2026-05-08 23:35 39.95950 -85.36214 34917 ft 552 kts 79°
2026-05-08 23:35 39.97315 -85.26402 34907 ft 555 kts 79°
2026-05-08 23:36 39.98689 -85.16453 34902 ft 558 kts 79°
2026-05-08 23:36 40.00059 -85.06466 34912 ft 560 kts 79°
2026-05-08 23:37 40.01423 -84.96448 34895 ft 561 kts 79°
2026-05-08 23:37 40.02780 -84.86426 34903 ft 561 kts 79°
2026-05-08 23:38 40.04118 -84.76469 34896 ft 560 kts 79°
2026-05-08 23:38 40.05454 -84.66462 34900 ft 558 kts 79°
2026-05-08 23:39 40.06778 -84.56475 34891 ft 557 kts 79°
2026-05-08 23:39 40.08081 -84.46583 34900 ft 548 kts 79°
2026-05-08 23:40 40.08717 -84.41732 34889 ft 534 kts 79°
2026-05-08 23:40 40.09337 -84.36995 34643 ft 526 kts 79°
2026-05-08 23:40 40.10199 -84.32374 34322 ft 520 kts 69°
2026-05-08 23:40 40.11491 -84.28004 33983 ft 513 kts 59°
2026-05-08 23:41 40.13219 -84.23971 33524 ft 505 kts 52°
2026-05-08 23:41 40.15079 -84.20099 33149 ft 501 kts 51°
2026-05-08 23:41 40.16940 -84.16263 32757 ft 498 kts 51°
2026-05-08 23:41 40.18782 -84.12450 32389 ft 494 kts 51°
2026-05-08 23:42 40.20606 -84.08638 32030 ft 491 kts 51°
2026-05-08 23:42 40.22338 -84.04809 31745 ft 490 kts 59°
2026-05-08 23:42 40.23531 -84.00689 31501 ft 490 kts 73°
2026-05-08 23:42 40.24103 -83.96246 31252 ft 487 kts 85°
2026-05-08 23:43 40.24160 -83.91912 31014 ft 480 kts 95°
2026-05-08 23:43 40.23715 -83.87614 30771 ft 473 kts 102°
2026-05-08 23:43 40.23148 -83.83400 30526 ft 468 kts 102°
2026-05-08 23:43 40.22577 -83.79223 30279 ft 463 kts 102°
2026-05-08 23:44 40.22027 -83.75094 30033 ft 458 kts 101°
2026-05-08 23:44 40.21490 -83.70950 29794 ft 469 kts 101°
2026-05-08 23:44 40.20945 -83.66655 29552 ft 486 kts 100°
2026-05-08 23:44 40.20388 -83.62215 29308 ft 502 kts 100°
2026-05-08 23:45 40.19812 -83.57625 29052 ft 515 kts 100°
2026-05-08 23:45 40.19426 -83.54567 28862 ft 515 kts 100°
2026-05-08 23:45 40.19156 -83.49925 28525 ft 509 kts 83°
2026-05-08 23:45 40.20278 -83.44097 28155 ft 492 kts 62°
2026-05-08 23:46 40.21905 -83.40227 27868 ft 479 kts 47°
2026-05-08 23:46 40.24076 -83.37013 27624 ft 467 kts 36°
2026-05-08 23:46 40.25641 -83.35063 27461 ft 465 kts 35°
2026-05-08 23:46 40.28001 -83.32205 27141 ft 458 kts 34°
2026-05-08 23:47 40.30333 -83.29392 26794 ft 453 kts 34°
2026-05-08 23:47 40.32641 -83.26581 26254 ft 452 kts 35°
2026-05-08 23:47 40.34940 -83.23746 25683 ft 453 kts 36°
2026-05-08 23:47 40.37222 -83.20901 25183 ft 451 kts 36°
2026-05-08 23:48 40.39482 -83.18063 24762 ft 448 kts 36°
2026-05-08 23:48 40.41723 -83.15243 24355 ft 445 kts 36°
2026-05-08 23:48 40.43920 -83.12477 23953 ft 441 kts 36°
2026-05-08 23:48 40.46133 -83.09691 23534 ft 438 kts 37°
2026-05-08 23:49 40.48328 -83.06929 23027 ft 436 kts 37°
2026-05-08 23:49 40.50517 -83.04178 22570 ft 432 kts 37°
2026-05-08 23:49 40.52682 -83.01465 22150 ft 428 kts 37°
2026-05-08 23:49 40.54837 -82.98767 21713 ft 424 kts 37°
2026-05-08 23:50 40.56940 -82.96133 21273 ft 421 kts 37°
2026-05-08 23:50 40.59052 -82.93487 20832 ft 418 kts 37°
2026-05-08 23:50 40.61153 -82.90850 20427 ft 415 kts 37°
2026-05-08 23:50 40.63231 -82.88237 20015 ft 412 kts 37°
2026-05-08 23:51 40.65292 -82.85644 19611 ft 409 kts 37°
2026-05-08 23:51 40.67348 -82.83055 19211 ft 406 kts 37°
2026-05-08 23:51 40.69383 -82.80490 18835 ft 403 kts 37°
2026-05-08 23:51 40.71407 -82.77936 18405 ft 401 kts 37°
2026-05-08 23:52 40.73414 -82.75403 18008 ft 398 kts 37°
2026-05-08 23:52 40.75379 -82.72918 17610 ft 394 kts 37°
2026-05-08 23:52 40.77351 -82.70422 17207 ft 391 kts 38°
2026-05-08 23:52 40.79288 -82.67965 17124 ft 379 kts 37°
2026-05-08 23:53 40.81161 -82.65586 17038 ft 368 kts 37°
2026-05-08 23:53 40.82977 -82.63279 16969 ft 357 kts 37°
2026-05-08 23:53 40.84747 -82.61032 16814 ft 349 kts 37°
2026-05-08 23:53 40.86471 -82.58848 16518 ft 347 kts 37°
2026-05-08 23:54 40.88215 -82.56637 16170 ft 346 kts 37°
2026-05-08 23:54 40.89944 -82.54441 15877 ft 344 kts 37°
2026-05-08 23:54 40.91664 -82.52251 15582 ft 341 kts 37°
2026-05-08 23:55 40.95072 -82.47909 14955 ft 338 kts 38°
2026-05-08 23:55 40.96761 -82.45755 14660 ft 336 kts 38°
2026-05-08 23:55 40.98418 -82.43642 14373 ft 334 kts 38°
2026-05-08 23:55 41.00084 -82.41516 14083 ft 332 kts 38°
2026-05-08 23:56 41.01741 -82.39399 13790 ft 330 kts 38°
2026-05-08 23:56 41.03398 -82.37281 13409 ft 331 kts 39°
2026-05-08 23:56 41.05055 -82.35162 13027 ft 331 kts 39°
2026-05-08 23:56 41.06706 -82.33014 12681 ft 330 kts 40°
2026-05-08 23:57 41.08333 -82.30867 12366 ft 329 kts 40°
2026-05-08 23:57 41.09932 -82.28751 12084 ft 327 kts 40°
2026-05-08 23:57 41.11528 -82.26636 11834 ft 323 kts 40°
2026-05-08 23:57 41.13119 -82.24528 11478 ft 323 kts 40°
2026-05-08 23:58 41.14712 -82.22420 11144 ft 323 kts 41°
2026-05-08 23:58 41.16298 -82.20320 10870 ft 321 kts 41°
2026-05-08 23:58 41.17873 -82.18233 10569 ft 319 kts 41°
2026-05-08 23:58 41.19442 -82.16154 10355 ft 315 kts 41°
2026-05-08 23:59 41.20955 -82.14143 10263 ft 300 kts 41°
2026-05-08 23:59 41.22396 -82.12226 10154 ft 286 kts 40°
2026-05-08 23:59 41.23756 -82.10420 10028 ft 274 kts 40°
2026-05-08 23:59 41.25093 -82.08646 9737 ft 270 kts 40°
2026-05-09 00:00 41.26422 -82.06882 9341 ft 269 kts 40°
2026-05-09 00:00 41.27754 -82.05111 8985 ft 271 kts 40°
2026-05-09 00:00 41.29090 -82.03361 8773 ft 268 kts 36°
2026-05-09 00:00 41.30607 -82.02043 8615 ft 256 kts 20°
2026-05-09 00:01 41.32191 -82.00970 8357 ft 255 kts 20°
2026-05-09 00:01 41.33755 -81.99910 8085 ft 256 kts 20°
2026-05-09 00:01 41.35336 -81.98827 7840 ft 255 kts 21°
2026-05-09 00:01 41.36912 -81.97736 7593 ft 255 kts 21°
2026-05-09 00:02 41.38488 -81.96636 7348 ft 255 kts 21°
2026-05-09 00:02 41.40052 -81.95539 7129 ft 253 kts 21°
2026-05-09 00:02 41.41612 -81.94441 7048 ft 253 kts 21°
2026-05-09 00:02 41.43170 -81.93341 7011 ft 252 kts 21°
2026-05-09 00:03 41.44700 -81.92260 7007 ft 250 kts 21°
2026-05-09 00:03 41.46245 -81.91166 7012 ft 252 kts 21°
2026-05-09 00:03 41.47800 -81.90066 7015 ft 253 kts 21°
2026-05-09 00:03 41.49358 -81.88962 7026 ft 254 kts 21°
2026-05-09 00:04 41.50912 -81.87837 7020 ft 255 kts 27°
2026-05-09 00:04 41.52278 -81.86277 7039 ft 259 kts 40°
2026-05-09 00:04 41.53533 -81.84552 7003 ft 259 kts 43°
2026-05-09 00:04 41.54756 -81.82791 6903 ft 257 kts 43°
2026-05-09 00:05 41.55955 -81.81036 6629 ft 255 kts 43°
2026-05-09 00:05 41.57096 -81.79236 6205 ft 259 kts 49°
2026-05-09 00:05 41.58203 -81.77305 5857 ft 257 kts 49°
2026-05-09 00:05 41.59273 -81.75421 5492 ft 257 kts 50°
2026-05-09 00:06 41.60353 -81.73522 5140 ft 257 kts 50°
2026-05-09 00:06 41.61439 -81.71620 4784 ft 257 kts 50°
2026-05-09 00:06 41.62528 -81.69725 4423 ft 256 kts 50°
2026-05-09 00:06 41.63603 -81.67839 4126 ft 254 kts 55°
2026-05-09 00:07 41.64196 -81.65648 4019 ft 249 kts 90°
2026-05-09 00:07 41.63896 -81.63461 3986 ft 240 kts 124°
2026-05-09 00:07 41.62881 -81.61808 3785 ft 225 kts 148°
2026-05-09 00:07 41.61650 -81.60509 3487 ft 225 kts 151°
2026-05-09 00:08 41.60409 -81.59272 3317 ft 220 kts 151°
2026-05-09 00:08 41.59181 -81.58059 3127 ft 217 kts 152°
2026-05-09 00:08 41.57875 -81.57150 3022 ft 207 kts 178°
2026-05-09 00:08 41.56523 -81.57369 3005 ft 192 kts 213°
2026-05-09 00:09 41.55630 -81.58609 3005 ft 187 kts 248°
2026-05-09 00:09 41.55354 -81.60297 3014 ft 185 kts 261°
2026-05-09 00:09 41.55201 -81.61964 3002 ft 179 kts 261°
2026-05-09 00:09 41.54844 -81.63574 3020 ft 192 kts 236°
2026-05-09 00:10 41.53996 -81.64990 3027 ft 197 kts 234°
2026-05-09 00:10 41.53157 -81.66438 3015 ft 196 kts 233°
2026-05-09 00:10 41.52302 -81.67840 2999 ft 193 kts 232°
2026-05-09 00:10 41.51442 -81.69211 3004 ft 193 kts 232°
2026-05-09 00:11 41.50582 -81.70574 3000 ft 191 kts 231°
2026-05-09 00:11 41.49727 -81.71925 3002 ft 190 kts 231°
2026-05-09 00:11 41.48892 -81.73245 2987 ft 181 kts 231°
2026-05-09 00:11 41.48090 -81.74515 2819 ft 175 kts 231°
2026-05-09 00:12 41.47312 -81.75749 2568 ft 172 kts 230°
2026-05-09 00:12 41.46548 -81.76958 2344 ft 166 kts 229°
2026-05-09 00:12 41.45822 -81.78108 2117 ft 157 kts 229°
2026-05-09 00:12 41.45137 -81.79194 1903 ft 150 kts 229°
2026-05-09 00:13 41.44492 -81.80214 1708 ft 144 kts 229°
2026-05-09 00:13 41.43823 -81.81273 1535 ft 155 kts 229°
2026-05-09 00:13 41.43121 -81.82388 1312 ft 155 kts 228°
2026-05-09 00:13 41.42460 -81.83436 1114 ft 141 kts 229°
2026-05-09 00:14 41.41846 -81.84412 886 ft 134 kts 228°
2026-05-09 00:14 41.41264 -81.85327 794 ft 121 kts 230°
2026-05-09 00:14 41.40800 -81.86068 787 ft 63 kts 231°
2026-05-09 00:14 41.40587 -81.86398 781 ft 44 kts 227°
2026-05-09 00:15 41.40514 -81.86502 776 ft 18 kts 227°
2026-05-09 00:15 41.40337 -81.86646 773 ft 20 kts 191°
2026-05-09 00:15 41.40269 -81.86609 772 ft 6 kts 135°
2026-05-09 00:15 41.40230 -81.86554 772 ft 10 kts 133°
2026-05-09 00:16 41.40176 -81.86499 770 ft 1 kts 146°
2026-05-09 00:16 41.40083 -81.86398 769 ft 29 kts 140°
2026-05-09 00:16 41.39980 -81.86256 772 ft 13 kts 109°
2026-05-09 00:16 41.39993 -81.86209 772 ft 4 kts 44°
2026-05-09 00:17 41.39994 -81.86208 772 ft 0 kts 44°
2026-05-09 00:17 41.39996 -81.86206 772 ft 2 kts 44°
2026-05-09 00:17 41.40038 -81.86149 774 ft 16 kts 49°
2026-05-09 00:18 41.40147 -81.85987 775 ft 31 kts 37°
2026-05-09 00:18 41.40286 -81.85927 779 ft 17 kts 27°
2026-05-09 00:18 41.40370 -81.85816 781 ft 17 kts 49°
2026-05-09 00:18 41.40444 -81.85702 785 ft 16 kts 49°
2026-05-09 00:19 41.40518 -81.85586 784 ft 18 kts 51°
2026-05-09 00:19 41.40601 -81.85451 785 ft 19 kts 50°
2026-05-09 00:19 41.40650 -81.85284 783 ft 21 kts 95°
2026-05-09 00:19 41.40644 -81.85093 787 ft 20 kts 91°
2026-05-09 00:20 41.40637 -81.84907 790 ft 20 kts 95°
2026-05-09 00:20 41.40626 -81.84728 791 ft 19 kts 92°
2026-05-09 00:20 41.40621 -81.84554 795 ft 18 kts 94°
2026-05-09 00:20 41.40679 -81.84435 796 ft 18 kts
2026-05-09 00:21 41.40800 -81.84434 796 ft 17 kts 359°
2026-05-09 00:21 41.40909 -81.84399 798 ft 17 kts 34°
2026-05-09 00:21 41.41021 -81.84379 799 ft 16 kts
2026-05-09 00:21 41.41131 -81.84380 798 ft 16 kts 358°
2026-05-09 00:22 41.41195 -81.84375 797 ft 5 kts 25°
2026-05-09 00:22 41.41196 -81.84375 797 ft 0 kts 26°
2026-05-09 00:22 41.41229 -81.84341 797 ft 9 kts 44°
2026-05-09 00:22 41.41276 -81.84270 798 ft 12 kts 51°
2026-05-09 00:23 41.41324 -81.84162 797 ft 15 kts 83°
2026-05-09 00:23 41.41338 -81.84016 799 ft 14 kts 82°
2026-05-09 00:23 41.41323 -81.83914 799 ft 2 kts 102°
2026-05-09 00:23 41.41322 -81.83904 799 ft 0 kts 102°